Temperature
9 7 7 8 8 9 9 9 9 10 11 11 10 10 10 11 11 11 11 12 13 13 13 13 13 13 13 13 12 12 12 12 11 11 11 11 11 11 11 10 10 10 10 10
7 7 8 9 9 9 9 9 9 10 11 11 10 10 10 10 10 11 11 12 12 12 13 13 13 13 13 13 12 12 12 11 11 11 11 11 11 11 10 10 10 10 10 10
7 8 9 9 9 9 9 8 9 9 10 10 10 9 9 9 10 11 11 12 12 12 12 12 12 12 12 12 12 12 11 11 11 11 10 10 10 10 10 10 10 9 9 9
7 8 9 9 9 9 9 9 9 9 9 8 9 7 8 9 9 9 10 11 11 12 12 12 12 12 12 12 11 11 11 11 10 10 10 10 10 10 10 10 9 9 9 9
7 8 8 8 8 9 9 9 9 9 8 7 8 7 8 8 8 9 9 10 11 11 11 11 11 11 11 11 11 11 10 10 10 10 10 9 9 9 9 9 9 9 9 8
6 7 8 8 9 9 8 8 8 7 7 7 7 7 7 7 8 8 9 9 10 11 11 11 11 11 11 11 10 10 10 10 9 9 9 9 9 9 9 9 8 8 8 8
5 6 7 8 7 8 8 6 6 6 6 6 7 7 7 8 8 8 8 9 9 10 10 10 10 10 10 10 10 10 9 9 9 9 9 9 9 9 8 8 8 8 8 8
4 5 6 7 7 6 6 6 6 6 6 6 7 7 7 7 7 8 9 9 9 9 10 10 10 9 9 9 9 9 9 9 9 8 8 8 8 8 8 8 8 8 8 8
3 4 6 6 7 7 6 6 6 5 5 6 6 7 7 7 7 7 7 7 8 8 9 9 9 9 9 9 9 9 8 8 8 8 8 8 8 8 8 8 8 8 8 8
3 3 5 6 7 7 6 6 5 5 6 7 7 7 6 7 6 6 6 6 7 7 8 8 8 8 8 8 8 8 8 8 8 8 8 7 7 8 8 7 7 7 7 7
3 2 3 4 5 5 5 5 5 4 5 6 6 7 7 6 6 5 5 6 7 7 7 7 7 7 7 7 7 7 7 7 7 7 7 7 7 7 7 7 7 7 7 7
3 2 2 3 4 5 5 5 4 4 4 4 5 6 6 5 5 5 5 6 6 6 6 6 7 6 6 6 6 7 7 7 7 7 7 7 7 7 7 7 7 6 6 6
3 1 2 3 3 4 4 4 4 4 3 3 5 6 5 5 5 5 5 5 5 6 5 5 6 6 6 6 6 6 6 6 6 6 6 6 6 6 6 6 6 6 6 6
3 1 2 2 3 2 2 3 4 4 3 3 4 5 5 4 4 4 4 5 5 5 5 5 5 5 5 5 5 5 5 6 6 6 6 6 6 6 6 6 6 6 6 6
2 1 1 2 3 2 3 3 3 4 3 4 5 4 5 4 4 4 4 4 4 4 4 4 4 4 5 5 5 5 5 5 5 5 5 5 5 6 6 6 6 5 5 5
1 1 1 2 3 3 3 3 3 3 4 4 4 4 4 4 4 3 3 3 3 3 3 3 4 4 4 4 4 4 5 5 5 5 5 5 5 5 5 5 5 5 5 5
0 0 1 1 2 3 2 2 2 3 3 3 4 4 3 3 3 3 3 3 3 3 3 3 3 4 4 4 4 4 4 4 4 5 5 5 5 5 5 5 5 5 5 5
0 0 -0 0 1 1 3 3 3 3 3 2 3 3 3 3 3 4 4 3 3 3 3 3 3 3 3 4 4 4 4 4 4 4 4 4 4 5 5 5 4 4 4 4
0 -0 -0 -0 0 1 2 2 2 2 2 2 2 2 2 3 3 3 3 4 3 3 3 3 3 3 3 3 3 3 4 4 4 4 4 4 4 4 4 4 4 4 4 4
0 -0 -1 -1 1 2 2 2 2 2 2 1 1 1 1 2 1 2 3 3 3 3 3 3 3 3 3 3 3 3 3 3 3 4 4 4 4 4 4 4 4 4 4 4
-1 -1 -1 -1 -0 1 1 1 3 2 2 1 1 1 1 1 2 2 2 2 2 2 2 2 2 2 2 2 2 2 3 3 3 3 3 3 4 4 4 4 4 3 3 3
-1 -1 -1 -1 -1 0 0 1 1 1 1 1 1 1 1 1 1 1 1 2 1 1 2 2 2 2 2 2 2 2 2 2 2 2 3 3 3 3 3 3 3 3 3 3
-2 -1 -1 -1 -0 -0 0 0 0 0 0 0 0 0 0 -0 -0 0 0 1 1 1 1 1 1 1 1 1 1 2 2 2 2 2 2 2 2 3 3 3 3 3 3 2
-2 -2 -2 -1 -1 -1 -0 -0 -0 -0 -0 -0 -0 -0 0 -0 -1 -0 -0 -0 -0 0 0 0 0 1 1 1 1 1 1 1 1 2 2 2 2 2 2 2 2 2 2 2
-2 -2 -2 -2 -2 -1 -1 -1 -1 -1 -0 -1 -1 -1 -1 -1 -1 -1 -1 -1 -1 -1 -0 -0 -0 0 0 0 0 1 1 1 1 1 1 1 2 2 2 2 2 2 2 1
-3 -3 -2 -2 -1 -2 -1 -1 -1 -1 -1 -1 -1 -1 -1 -1 -2 -2 -2 -1 -1 -1 -1 -1 -1 -1 -0 -0 -0 0 0 0 0 1 1 1 1 1 1 1 1 1 1 1
Wind_Speed
3 4 8 10 9 7 6 6 6 6 4 4 7 9 10 8 6 7 8 8 8 9 8 7 7 7 7 7 7 7 6 5 4 3 3 2 2 2 2 2 2 2 2 2
2 7 8 6 6 5 5 6 5 4 3 4 6 10 9 8 8 8 9 9 9 7 5 5 6 6 7 8 8 7 7 6 5 4 4 3 3 2 3 2 2 2 2 2
7 5 5 5 5 6 6 7 7 4 1 1 1 7 7 6 4 5 6 7 7 8 8 7 7 7 7 7 7 7 7 6 5 4 2 1 1 1 0 1 2 2 2 3
4 3 4 5 5 5 7 5 5 4 3 3 4 4 7 5 5 6 6 6 7 7 7 7 7 8 8 7 6 6 6 6 5 5 4 4 3 2 2 2 2 2 2 2
4 3 5 6 6 5 4 3 3 4 4 2 3 4 7 2 6 9 7 6 6 6 7 8 8 8 7 6 6 5 5 5 5 5 5 5 3 2 1 1 2 2 2 2
1 1 2 3 2 3 2 3 2 2 2 5 7 6 7 5 8 7 6 6 6 5 5 6 6 6 5 4 4 4 5 4 4 5 4 5 4 3 1 1 2 2 2 2
2 2 1 1 2 1 3 5 2 0 2 7 5 6 7 5 5 7 7 6 5 5 5 5 6 5 5 4 4 5 5 4 3 4 4 5 5 4 4 3 3 3 2 2
2 3 2 0 2 4 4 6 6 5 6 4 3 7 5 4 4 2 2 3 3 3 4 5 6 6 5 5 4 4 5 4 3 4 3 3 3 3 3 3 3 3 3 3
2 3 2 2 1 4 4 4 4 3 2 2 4 4 4 4 5 4 2 2 2 2 3 4 4 5 5 4 4 5 5 4 3 3 3 2 2 3 3 3 2 2 2 2
2 1 3 3 2 2 2 4 3 3 4 4 3 3 3 3 2 1 1 2 1 2 2 2 3 3 3 3 2 3 4 4 3 3 2 2 2 2 2 1 2 2 2 2
2 2 2 1 1 2 2 2 2 2 3 4 3 4 2 4 3 2 1 2 3 2 2 2 2 2 2 2 2 2 2 2 2 2 2 1 2 2 1 1 2 2 2 2
1 2 1 3 3 2 2 3 4 3 3 3 3 4 4 1 1 2 2 2 2 3 3 3 3 3 3 2 2 1 1 2 2 2 2 2 1 1 1 1 2 2 2 2
2 3 2 3 3 2 1 2 3 2 2 3 3 4 4 5 5 3 3 3 3 4 4 4 4 3 2 2 1 1 1 1 1 1 2 1 1 1 2 2 2 2 1 1
2 2 4 7 5 3 4 4 3 4 3 4 6 5 5 4 3 2 2 3 3 3 3 3 3 2 2 2 1 1 1 1 1 1 1 2 2 2 2 2 2 2 1 1
3 1 2 4 4 3 3 5 5 5 6 6 6 5 5 3 2 1 1 2 3 3 2 2 2 2 2 2 2 2 1 1 1 1 1 2 2 2 2 2 2 1 1 1
2 1 0 2 2 2 3 4 5 5 5 6 5 6 3 1 2 2 2 2 2 1 1 2 2 2 2 2 2 2 2 2 1 1 2 2 2 1 1 1 1 1 1 1
1 2 1 2 3 2 4 5 6 4 4 5 7 7 1 0 2 4 3 2 1 1 1 1 2 2 2 2 2 2 2 2 1 1 1 1 0 1 2 1 1 1 1 1
3 3 1 1 2 3 6 2 4 5 3 3 3 2 3 3 2 2 3 3 2 2 1 1 1 2 3 2 2 2 2 1 1 1 1 1 1 1 1 0 1 1 1 1
4 4 2 2 2 5 5 2 1 3 4 2 3 3 2 1 1 1 1 1 2 2 1 1 1 2 2 2 2 2 2 2 1 1 2 2 1 1 0 0 0 1 0 1
3 3 3 2 3 4 4 4 3 2 3 3 2 3 1 1 2 4 2 1 0 1 1 1 1 2 1 1 1 1 2 2 2 2 2 2 1 1 1 1 0 1 0 1
1 1 2 3 4 5 5 6 2 3 5 5 2 1 2 3 4 2 1 1 1 1 1 1 1 1 1 1 1 1 2 2 3 3 2 2 1 0 1 1 1 1 1 1
2 2 3 3 3 5 3 2 1 3 3 3 2 1 1 1 1 1 1 1 1 2 2 1 1 2 1 1 1 1 2 3 2 2 2 1 2 1 1 2 1 2 2 2
3 4 3 4 4 3 1 1 2 2 2 3 2 2 1 1 1 2 2 1 1 1 1 1 1 2 2 1 1 1 2 2 2 2 2 2 2 2 2 2 2 2 2 1
3 1 2 3 4 4 3 3 4 4 3 3 2 1 1 1 1 1 1 1 1 1 1 1 2 2 2 2 2 2 2 2 2 2 2 2 2 3 3 2 2 2 1 1
4 2 2 3 4 3 3 3 4 4 4 3 4 3 1 1 2 1 1 1 1 1 2 1 1 1 2 2 2 2 2 2 2 2 2 2 2 2 3 3 2 2 1 1
2 3 3 4 4 3 4 3 3 3 4 3 3 3 3 1 1 1 1 1 1 1 1 1 2 2 2 2 2 2 2 1 2 2 2 1 1 2 2 3 3 6 5 5
Wind_Direction
163 164 200 200 197 197 184 188 213 232 227 204 230 245 248 249 231 225 225 220 215 213 211 193 180 170 162 161 162 166 163 168 157 154 161 174 202 222 223 222 214 208 202 199
125 222 217 196 197 196 205 214 230 264 240 215 243 259 253 241 225 216 215 215 213 211 201 188 174 165 165 169 170 169 170 173 174 178 181 188 192 215 216 227 241 221 205 204
202 220 190 188 201 208 222 208 209 217 306 304 257 285 263 255 232 229 220 211 205 198 195 189 176 171 166 170 175 177 177 177 177 168 147 114 80 42 334 248 243 244 224 218
224 231 181 189 207 198 228 216 203 195 169 242 177 259 272 245 249 240 232 219 212 206 193 184 176 175 179 183 177 174 175 172 173 163 163 167 179 199 223 225 235 257 244 235
229 198 176 194 219 204 211 198 199 202 179 236 211 215 278 242 242 242 235 225 218 206 191 182 174 175 175 171 168 171 169 173 171 170 175 180 193 206 227 232 232 244 256 251
256 269 173 200 227 195 140 93 53 56 115 237 216 190 268 232 227 235 229 221 210 193 176 170 165 152 149 152 156 160 163 175 177 175 178 185 189 190 184 229 233 248 259 260
356 324 338 121 89 37 112 115 96 313 219 240 198 189 246 253 244 227 221 220 203 176 162 161 152 147 146 145 161 165 163 170 176 180 188 194 193 188 194 209 219 236 254 268
141 245 270 312 171 185 198 158 168 189 206 253 188 214 252 300 301 278 205 194 167 160 157 159 162 157 157 155 158 164 167 171 179 184 199 202 193 194 208 216 220 226 235 243
156 243 316 324 326 146 157 195 179 147 173 212 236 259 308 351 3 20 53 94 125 147 149 153 153 152 153 157 165 174 174 176 186 190 197 201 199 204 216 226 227 233 245 247
130 206 298 318 31 28 153 152 116 145 171 220 251 246 254 270 279 1 68 116 126 110 102 130 146 152 153 156 157 162 169 178 187 192 201 213 221 222 222 221 238 246 249 245
99 136 313 9 175 184 111 119 128 159 181 173 217 256 243 225 210 193 191 153 149 129 111 117 129 136 124 107 109 120 156 156 175 197 210 215 233 233 217 228 244 244 245 246
126 119 248 262 278 263 192 178 153 168 229 206 195 258 332 344 109 109 102 88 94 90 75 77 86 90 86 86 88 95 126 170 192 203 206 222 240 230 224 239 249 241 244 244
135 116 67 347 334 335 251 217 188 166 151 181 191 256 348 33 48 61 88 80 73 73 65 57 57 62 62 63 62 63 46 223 221 208 202 224 257 242 239 239 242 243 245 258
71 138 180 200 227 204 244 249 213 170 192 216 227 249 317 356 18 35 75 90 84 69 65 55 44 36 32 26 17 12 349 326 257 215 204 226 248 246 246 245 244 241 233 237
81 169 222 263 260 205 236 243 219 205 202 204 235 237 264 254 227 204 113 89 79 62 45 34 20 10 9 4 352 337 320 319 306 250 231 242 252 254 260 247 241 235 227 242
59 138 301 303 274 237 273 260 231 232 223 228 248 262 265 240 111 118 120 106 89 59 357 336 342 345 339 335 328 322 310 305 307 270 268 272 258 253 240 243 236 213 228 262
160 139 118 269 318 4 281 244 215 218 217 199 229 245 228 161 180 180 174 167 182 223 253 271 277 277 285 288 293 290 293 310 315 299 288 286 255 255 237 231 223 213 213 222
168 145 152 216 52 239 247 235 211 219 243 227 234 251 216 217 211 186 169 174 209 250 250 266 295 309 304 309 320 319 327 338 339 324 307 287 246 251 258 219 224 255 239 220
178 155 156 167 214 269 288 286 211 207 255 247 247 291 319 33 49 323 295 175 217 234 251 260 259 300 306 320 335 346 355 2 354 319 310 299 262 228 188 155 260 280 235 187
117 123 146 162 187 235 269 297 288 154 278 308 261 247 249 90 221 255 296 333 350 3 4 359 352 350 345 337 351 18 358 356 325 303 296 300 287 200 180 195 227 357 59 146
116 127 183 199 221 261 288 308 13 147 261 311 306 252 214 218 234 244 295 342 25 25 14 23 41 15 337 342 14 23 2 332 316 316 322 334 335 274 177 161 88 75 71 78
184 177 195 173 207 258 315 25 154 246 304 325 326 327 326 314 358 19 33 25 37 38 30 34 43 9 357 14 30 13 340 327 336 348 2 9 7 24 74 100 85 79 87 85
213 200 198 197 220 278 285 255 299 319 316 320 332 336 14 5 337 346 358 26 30 44 50 32 59 23 1 6 27 359 329 342 4 24 21 21 34 45 63 87 87 73 75 92
284 258 201 253 281 302 316 339 348 344 329 325 344 347 6 360 345 346 357 31 34 1 25 29 53 34 359 357 8 359 347 359 40 44 26 21 49 55 55 62 67 74 67 95
252 247 235 258 285 319 318 323 329 341 353 12 9 358 358 16 349 343 351 352 2 356 5 18 46 13 343 359 15 12 12 33 51 49 37 33 49 71 65 59 53 64 54 93
236 214 212 240 247 237 269 295 331 348 344 345 355 355 351 354 335 342 340 334 352 1 357 12 16 4 349 5 17 11 13 47 74 56 39 40 56 73 78 76 56 46 51 55
Height
1460 1465 1465 1464 1466 1467 1469 1472 1473 1472 1468 1471 1472 1471 1468 1466 1467 1467 1468 1469 1470 1471 1474 1476 1478 1480 1482 1484 1486 1487 1489 1490 1491 1492 1493 1493 1494 1495 1495 1495 1495 1495 1495 1495
1463 1463 1459 1461 1463 1465 1467 1471 1472 1470 1468 1469 1471 1469 1465 1464 1463 1463 1464 1465 1466 1468 1470 1472 1474 1476 1478 1480 1482 1483 1485 1487 1488 1489 1490 1491 1492 1492 1492 1493 1492 1492 1492 1492
1459 1458 1457 1460 1462 1465 1466 1469 1470 1470 1468 1468 1471 1470 1465 1461 1460 1461 1460 1461 1462 1464 1465 1467 1470 1472 1474 1476 1478 1479 1481 1483 1485 1486 1487 1488 1489 1489 1489 1489 1489 1489 1489 1489
1457 1455 1456 1459 1461 1462 1465 1462 1465 1467 1473 1477 1473 1480 1465 1461 1459 1458 1457 1458 1458 1460 1462 1463 1465 1468 1470 1472 1474 1476 1478 1480 1482 1483 1484 1484 1484 1484 1485 1485 1486 1486 1486 1486
1457 1455 1456 1458 1459 1460 1461 1461 1464 1467 1471 1477 1475 1478 1467 1461 1460 1456 1454 1454 1455 1456 1458 1460 1461 1464 1466 1469 1471 1473 1475 1477 1478 1479 1480 1481 1482 1482 1483 1483 1483 1483 1483 1483
1457 1455 1456 1456 1457 1458 1459 1463 1466 1470 1474 1477 1472 1477 1469 1462 1455 1452 1451 1451 1452 1453 1454 1457 1459 1461 1463 1466 1468 1470 1472 1473 1475 1476 1477 1478 1479 1479 1480 1480 1480 1479 1479 1479
1459 1457 1456 1456 1458 1459 1460 1468 1477 1478 1480 1475 1467 1469 1463 1453 1450 1448 1448 1448 1449 1451 1452 1454 1456 1458 1460 1462 1465 1466 1468 1470 1472 1473 1474 1475 1476 1476 1477 1477 1477 1476 1476 1476
1465 1465 1458 1456 1458 1460 1461 1465 1474 1476 1476 1472 1466 1467 1458 1451 1447 1445 1446 1447 1448 1450 1451 1452 1454 1456 1458 1460 1462 1464 1465 1467 1469 1470 1471 1472 1473 1474 1474 1474 1474 1474 1473 1473
1466 1464 1458 1457 1456 1457 1462 1464 1465 1471 1473 1471 1466 1460 1454 1449 1447 1446 1446 1446 1447 1449 1450 1451 1453 1455 1456 1458 1459 1461 1462 1464 1465 1467 1468 1469 1470 1470 1471 1471 1471 1471 1471 1470
1463 1468 1462 1459 1457 1457 1459 1461 1468 1472 1471 1467 1461 1459 1459 1452 1450 1448 1447 1447 1448 1449 1449 1451 1452 1454 1455 1456 1457 1459 1460 1461 1463 1464 1465 1466 1467 1468 1468 1468 1468 1468 1468 1467
1463 1469 1467 1463 1462 1461 1462 1464 1465 1470 1469 1468 1466 1460 1450 1449 1448 1448 1448 1447 1448 1448 1449 1450 1452 1453 1454 1455 1456 1457 1458 1459 1460 1461 1462 1463 1464 1464 1465 1465 1465 1465 1465 1465
1462 1468 1472 1467 1462 1461 1460 1461 1466 1471 1471 1469 1466 1462 1449 1447 1447 1448 1448 1449 1449 1450 1450 1451 1451 1452 1453 1454 1454 1455 1456 1457 1458 1459 1460 1460 1461 1461 1461 1462 1462 1462 1462 1462
1461 1469 1474 1470 1469 1465 1463 1462 1463 1466 1470 1471 1467 1459 1450 1448 1448 1449 1449 1450 1450 1450 1451 1451 1451 1452 1452 1453 1453 1454 1455 1455 1456 1457 1457 1458 1458 1458 1458 1458 1459 1459 1459 1458
1459 1467 1469 1468 1464 1465 1465 1462 1461 1464 1468 1467 1461 1456 1452 1450 1450 1450 1451 1451 1451 1451 1451 1451 1452 1452 1452 1453 1453 1454 1454 1454 1455 1455 1455 1455 1455 1455 1455 1456 1456 1456 1456 1456
1460 1466 1465 1463 1460 1461 1461 1460 1458 1459 1460 1461 1456 1455 1452 1451 1451 1451 1451 1451 1451 1452 1452 1452 1452 1451 1452 1452 1452 1453 1453 1453 1453 1453 1453 1453 1453 1453 1453 1453 1453 1453 1453 1453
1461 1466 1465 1463 1458 1458 1458 1457 1457 1456 1456 1456 1454 1454 1449 1449 1450 1451 1451 1451 1451 1451 1452 1452 1451 1451 1451 1451 1451 1451 1451 1451 1451 1451 1451 1451 1451 1451 1450 1450 1450 1450 1450 1450
1463 1465 1466 1466 1461 1457 1461 1456 1455 1454 1453 1453 1453 1450 1449 1450 1450 1449 1450 1450 1450 1451 1451 1451 1450 1450 1450 1450 1449 1449 1449 1449 1449 1449 1449 1449 1448 1448 1448 1448 1448 1448 1448 1448
1462 1465 1468 1468 1466 1469 1455 1449 1449 1449 1449 1449 1447 1446 1446 1446 1447 1448 1448 1449 1449 1449 1449 1449 1449 1449 1448 1448 1448 1448 1448 1447 1447 1447 1447 1447 1446 1446 1446 1445 1445 1445 1445 1445
1458 1463 1468 1469 1469 1461 1452 1448 1449 1450 1449 1447 1447 1446 1446 1446 1446 1447 1447 1448 1447 1448 1448 1447 1447 1447 1446 1446 1446 1446 1445 1445 1445 1445 1445 1445 1444 1444 1443 1443 1443 1443 1443 1444
1459 1461 1467 1469 1465 1460 1451 1446 1444 1447 1449 1446 1445 1445 1445 1445 1448 1446 1445 1446 1446 1446 1446 1446 1445 1445 1444 1444 1444 1444 1443 1443 1443 1443 1443 1443 1442 1442 1442 1442 1442 1442 1442 1442
1462 1464 1466 1467 1465 1457 1451 1446 1444 1452 1450 1445 1443 1442 1443 1443 1443 1443 1443 1443 1444 1444 1444 1444 1443 1443 1443 1442 1442 1442 1441 1441 1441 1441 1441 1441 1440 1440 1440 1440 1440 1440 1441 1441
1461 1464 1466 1466 1465 1459 1450 1447 1450 1449 1445 1444 1442 1441 1441 1440 1440 1440 1440 1441 1441 1441 1441 1441 1441 1441 1441 1440 1440 1440 1439 1439 1439 1439 1439 1439 1439 1438 1438 1438 1439 1439 1439 1439
1461 1460 1459 1459 1457 1452 1449 1448 1448 1446 1445 1443 1442 1440 1440 1439 1438 1438 1438 1438 1438 1439 1439 1439 1439 1439 1439 1439 1438 1438 1438 1437 1437 1437 1437 1437 1437 1437 1437 1437 1437 1437 1437 1437
1458 1455 1456 1456 1452 1450 1449 1447 1446 1445 1444 1442 1441 1440 1439 1438 1437 1437 1436 1436 1436 1437 1437 1437 1437 1437 1436 1437 1436 1436 1436 1436 1436 1436 1435 1435 1435 1435 1435 1435 1435 1435 1435 1435
1456 1455 1455 1453 1451 1449 1447 1446 1445 1444 1442 1441 1440 1439 1438 1437 1436 1435 1435 1435 1435 1435 1435 1435 1435 1435 1435 1435 1435 1435 1434 1434 1434 1434 1434 1434 1434 1434 1434 1434 1434 1434 1434 1434
1453 1454 1453 1451 1448 1448 1446 1445 1444 1442 1441 1440 1438 1437 1437 1436 1435 1434 1434 1434 1434 1434 1434 1434 1434 1433 1433 1433 1432 1433 1433 1433 1432 1432 1432 1432 1432 1432 1432 1432 1433 1433 1433 1433